FW9683 Weather Reports


Display with metric or nautical units.
time (UTC)temp
F
wind
direction
speed
MPH
gust
MPH
rain 1hr
in
rain 24hr
in
rain mn
in
humidity
%
barometer
mb
20260510104555 71 177 5.0 13.0 0.00 0.00 0.00 66 1010.8
20260510103052 71 193 7.0 14.0 0.00 0.00 0.00 65 1010.5
20260510101553 72 191 6.0 16.0 0.00 0.00 0.00 65 1010.3
20260510100053 72 175 8.0 15.0 0.00 0.00 0.00 64 1010.3
20260510094553 72 200 8.0 18.0 0.00 0.00 0.00 63 1010.3
20260510093104 73 201 9.0 19.0 0.00 0.00 0.00 62 1010.3
20260510091553 73 225 11.0 20.0 0.00 0.00 0.00 61 1010.3
20260510090104 73 223 11.0 18.0 0.00 0.00 0.00 60 1010.4
20260510084552 73 195 11.0 23.0 0.00 0.00 0.00 59 1010.3
20260510083105 73 214 11.0 24.0 0.00 0.00 0.00 58 1010.2
20260510081607 73 198 10.0 19.0 0.00 0.00 0.00 57 1010.3
20260510080056 74 189 7.0 19.0 0.00 0.00 0.00 56 1010.5
20260510074558 74 157 10.0 18.0 0.00 0.00 0.00 56 1010.5
20260510073054 74 196 8.0 16.0 0.00 0.00 0.00 54 1010.8
20260510071552 75 236 9.0 22.0 0.00 0.00 0.00 53 1010.8
20260510070055 75 203 10.0 19.0 0.00 0.00 0.00 51 1010.9
20260510064604 75 221 9.0 17.0 0.00 0.00 0.00 48 1011.1
20260510063053 76 190 7.0 18.0 0.00 0.00 0.00 46 1011.1
20260510061551 77 189 8.0 15.0 0.00 0.00 0.00 45 1011.1
20260510060053 77 221 7.0 19.0 0.00 0.00 0.00 44 1011.0
20260510054556 77 173 7.0 16.0 0.00 0.00 0.00 43 1010.9
20260510053057 78 180 8.0 15.0 0.00 0.00 0.00 43 1010.8
20260510051559 78 180 9.0 18.0 0.00 0.00 0.00 42 1010.7
20260510050100 79 173 10.0 19.0 0.00 0.00 0.00 40 1010.8
20260510044637 79 194 10.0 22.0 0.00 0.00 0.00 39 1010.8
20260510043055 80 191 11.0 22.0 0.00 0.00 0.00 36 1010.8
20260510041556 80 177 9.0 16.0 0.00 0.00 0.00 32 1010.8
20260510040055 81 171 10.0 17.0 0.00 0.00 0.00 29 1010.8
20260510034554 81 186 8.0 16.0 0.00 0.00 0.00 29 1010.6
20260510033053 82 171 9.0 17.0 0.00 0.00 0.00 29 1010.4
20260510031557 82 200 8.0 15.0 0.00 0.00 0.00 29 1010.3
20260510030055 83 191 7.0 13.0 0.00 0.00 0.00 29 1010.2
20260510024553 83 178 6.0 11.0 0.00 0.00 0.00 27 1009.9
20260510023054 84 163 6.0 13.0 0.00 0.00 0.00 25 1009.8
20260510021557 86 185 6.0 12.0 0.00 0.00 0.00 23 1009.7
20260510020058 87 187 6.0 13.0 0.00 0.00 0.00 21 1009.5
20260510014553 88 202 6.0 13.0 0.00 0.00 0.00 21 1009.2
20260510013053 89 193 8.0 13.0 0.00 0.00 0.00 19 1009.1
20260510011556 90 229 9.0 18.0 0.00 0.00 0.00 17 1009.0
20260510010126 91 162 8.0 13.0 0.00 0.00 0.00 17 1008.9
20260510004554 91 216 8.0 20.0 0.00 0.00 0.00 16 1008.9
20260510003054 92 177 9.0 16.0 0.00 0.00 0.00 17 1008.9
20260510001554 92 209 7.0 21.0 0.00 0.00 0.00 17 1009.0
20260510000054 93 228 8.0 17.0 0.00 0.00 0.00 16 1009.0
20260509234613 93 221 5.0 17.0 0.00 0.00 0.00 16 1009.1
20260509233054 93 171 7.0 16.0 0.00 0.00 0.00 16 1009.0
20260509231554 93 187 5.0 16.0 0.00 0.00 0.00 16 1009.1
20260509230058 93 194 10.0 15.0 0.00 0.00 0.00 16 1009.3
20260509224553 93 210 7.0 16.0 0.00 0.00 0.00 16 1009.3
20260509223052 93 245 14.0 20.0 0.00 0.00 0.00 16 1009.4
20260509221554 92 219 11.0 18.0 0.00 0.00 0.00 17 1009.5
20260509214556 92 157 6.0 18.0 0.00 0.00 0.00 18 1009.8
20260509213057 92 192 11.0 21.0 0.00 0.00 0.00 17 1010.0
20260509211558 91 196 6.0 22.0 0.00 0.00 0.00 19 1010.3
20260509210057 91 221 8.0 21.0 0.00 0.00 0.00 20 1010.5
20260509204601 90 198 9.0 19.0 0.00 0.00 0.00 21 1010.9
20260509203138 91 228 11.0 21.0 0.00 0.00 0.00 19 1011.2
20260509201622 90 200 10.0 21.0 0.00 0.00 0.00 22 1011.5
20260509200100 89 133 8.0 18.0 0.00 0.00 0.00 25 1011.6
20260509194554 89 240 12.0 20.0 0.00 0.00 0.00 24 1011.8
20260509193119 89 221 6.0 17.0 0.00 0.00 0.00 27 1011.9
20260509191612 88 212 10.0 23.0 0.00 0.00 0.00 27 1012.1
20260509190057 88 209 7.0 18.0 0.00 0.00 0.00 29 1012.3
20260509184558 87 153 10.0 16.0 0.00 0.00 0.00 31 1012.3
20260509183057 87 160 9.0 19.0 0.00 0.00 0.00 31 1012.7
20260509181600 86 142 7.0 19.0 0.00 0.00 0.00 33 1012.9
20260509180104 85 221 10.0 19.0 0.00 0.00 0.00 34 1013.1
20260509174556 85 221 9.0 16.0 0.00 0.00 0.00 31 1013.2
20260509173101 84 242 10.0 17.0 0.00 0.00 0.00 35 1013.4
20260509171551 83 183 7.0 17.0 0.00 0.00 0.00 36 1013.4
20260509170058 83 232 8.0 18.0 0.00 0.00 0.00 37 1013.6
20260509164601 82 144 4.0 14.0 0.00 0.00 0.00 38 1013.6
20260509163055 81 203 9.0 18.0 0.00 0.00 0.00 40 1013.8
20260509161557 81 223 9.0 19.0 0.00 0.00 0.00 39 1013.9
20260509160053 80 223 9.0 15.0 0.00 0.00 0.00 43 1013.9
20260509154551 78 201 10.0 18.0 0.00 0.00 0.00 45 1013.8
20260509153105 77 223 9.0 16.0 0.00 0.00 0.00 47 1014.0
20260509151608 76 223 8.0 15.0 0.00 0.00 0.00 49 1014.1
20260509150056 75 223 9.0 16.0 0.00 0.00 0.00 56 1014.3
20260509144553 73 252 8.0 12.0 0.00 0.00 0.00 62 1014.4
20260509143054 71 252 8.0 11.0 0.00 0.00 0.00 67 1014.4
20260509141552 70 228 8.0 13.0 0.00 0.00 0.00 72 1014.3
20260509140054 68 215 6.0 12.0 0.00 0.00 0.00 76 1014.3
20260509134559 67 227 5.0 11.0 0.00 0.00 0.00 79 1014.1
20260509133104 66 239 6.0 11.0 0.00 0.00 0.00 81 1014.3
20260509131602 65 235 5.0 9.0 0.00 0.00 0.00 82 1014.0
20260509130109 64 9 4.0 9.0 0.00 0.00 0.00 83 1013.6
20260509124553 63 165 3.0 6.0 0.00 0.00 0.00 83 1013.5
20260509123056 62 195 3.0 7.0 0.00 0.00 0.00 83 1013.4
20260509121553 62 183 2.0 6.0 0.00 0.00 0.00 82 1013.2
20260509120057 62 221 3.0 6.0 0.00 0.00 0.00 81 1013.0
20260509114554 62 255 1.0 4.0 0.00 0.00 0.00 80 1012.9
20260509113052 63 217 2.0 7.0 0.00 0.00 0.00 80 1012.6
20260509111551 63 178 3.0 6.0 0.00 0.00 0.00 78 1012.5
20260509110053 64 214 4.0 8.0 0.00 0.00 0.00 78 1012.3